, AK

(GMT )
Gustavus

Weather History for PAGS - April, 2013

Change the Weather History Date:

Tuesday, April 2, 2013

  Actual Average Record
Temperature  
Mean Temperature 38 °F -  
Max Temperature 42 °F 44 °F 56 °F (1958)
Min Temperature 33 °F 31 °F 14 °F (2002)
Degree Days  
Heating Degree Days 28    
Moisture  
Dew Point 35 °F    
Average Humidity 90    
Maximum Humidity 100    
Minimum Humidity 70    
Precipitation  
Precipitation 0.00 in - - ()
Sea Level Pressure  
Sea Level Pressure 30.18 in    
Wind  
Wind Speed 5 mph (SSE)    
Max Wind Speed 10 mph    
Max Gust Speed -    
Visibility 10 miles    
Events      
Averages and records for this station are not official NWS values.
T = Trace of Precipitation, MM = Missing Value Source: NWS Daily Summary

Daily Weather History Graph

Daily Weather History Graph

Search for Another Location

Airport or City:

Trip Planner

Search our weather history database for the weather conditions in past years. The results will help you decide how hot, cold, wet, or windy it might be!

Date:

Astronomy

Apr. 02, 2013 Rise Set
Actual Time 6:26 AM AKDT 7:47 PM AKDT
Civil Twilight 5:45 AM AKDT 8:28 PM AKDT
Nautical Twilight 4:54 AM AKDT 9:20 PM AKDT
Astronomical Twilight 3:56 AM AKDT 10:19 PM AKDT
Moon 2:55 AM AKDT (4/2) 10:30 AM AKDT (4/2)
Length of Visible Light 14h 43m
Length of Day
13h 21m
Waning Gibbous, 54% of the Moon is Illuminated
Apr 2
Waning Gibbous
Apr 2
Last Quarter
Apr 10
New
Apr 18
First Quarter
Apr 25
Full

Hourly Weather History & Observations

Time (AKDT) Temp. Windchill Dew Point Humidity Pressure Visibility Wind Dir Wind Speed Gust Speed Precip Events Conditions
12:16 AM 35.6 °F 30.7 °F 33.8 °F 93% 30.01 in 10.0 mi ESE 5.8 mph - N/A   Overcast
12:36 AM 35.6 °F 28.0 °F 33.8 °F 93% 30.02 in 10.0 mi ESE 10.4 mph - N/A   Overcast
12:56 AM 35.6 °F 29.9 °F 33.8 °F 93% 30.03 in 10.0 mi SE 6.9 mph - N/A   Overcast
1:16 AM 35.6 °F 31.7 °F 33.8 °F 93% 30.04 in 10.0 mi South 4.6 mph - N/A   Overcast
1:36 AM 35.6 °F 29.9 °F 33.8 °F 93% 30.05 in 10.0 mi SE 6.9 mph - N/A   Overcast
1:56 AM 35.6 °F 30.7 °F 33.8 °F 93% 30.05 in 10.0 mi SE 5.8 mph - N/A   Overcast
2:16 AM 35.6 °F 32.8 °F 33.8 °F 93% 30.06 in 10.0 mi SSE 3.5 mph - N/A   Overcast
2:36 AM 35.6 °F 31.7 °F 33.8 °F 93% 30.07 in 10.0 mi SSE 4.6 mph - N/A   Mostly Cloudy
2:56 AM 35.6 °F 32.8 °F 33.8 °F 93% 30.07 in 10.0 mi SSE 3.5 mph - N/A   Overcast
3:16 AM 33.8 °F 28.6 °F 32.0 °F 93% 30.07 in 10.0 mi SE 5.8 mph - N/A   Overcast
3:36 AM 35.6 °F 31.7 °F 33.8 °F 93% 30.08 in 8.0 mi SE 4.6 mph - N/A   Overcast
3:56 AM 35.6 °F - 33.8 °F 93% 30.08 in 5.0 mi Calm Calm - N/A   Overcast
4:16 AM 33.8 °F - 32.0 °F 93% 30.09 in 10.0 mi Calm Calm - N/A   Overcast
4:36 AM 33.8 °F 29.6 °F 33.8 °F 100% 30.09 in 10.0 mi NNE 4.6 mph - N/A   Overcast
4:56 AM 33.8 °F 29.6 °F 33.8 °F 100% 30.10 in 10.0 mi NNE 4.6 mph - N/A   Overcast
5:16 AM 35.6 °F 31.7 °F 33.8 °F 93% 30.10 in 9.0 mi SE 4.6 mph - N/A   Overcast
5:36 AM 35.6 °F 29.9 °F 33.8 °F 93% 30.10 in 8.0 mi ESE 6.9 mph - N/A   Overcast
5:56 AM 33.8 °F 28.6 °F 33.8 °F 100% 30.10 in 5.0 mi ESE 5.8 mph - N/A   Overcast
6:36 AM 33.8 °F 28.6 °F 33.8 °F 100% 30.11 in 7.0 mi SE 5.8 mph - N/A   Overcast
6:56 AM 33.8 °F 30.8 °F 33.8 °F 100% 30.12 in 10.0 mi East 3.5 mph - N/A   Overcast
7:16 AM 33.8 °F 30.8 °F 33.8 °F 100% 30.12 in 10.0 mi ESE 3.5 mph - N/A   Overcast
7:36 AM 33.8 °F - 33.8 °F 100% 30.13 in 10.0 mi Calm Calm - N/A   Overcast
7:56 AM 35.6 °F 30.7 °F 35.6 °F 100% 30.14 in 7.0 mi SE 5.8 mph - N/A   Overcast
8:16 AM 35.6 °F 30.7 °F 33.8 °F 93% 30.14 in 10.0 mi ESE 5.8 mph - N/A   Overcast
8:36 AM 35.6 °F 30.7 °F 35.6 °F 100% 30.15 in 10.0 mi SE 5.8 mph - N/A   Mostly Cloudy
8:56 AM 35.6 °F 31.7 °F 35.6 °F 100% 30.15 in 10.0 mi SE 4.6 mph - N/A   Overcast
9:16 AM 35.6 °F 32.8 °F 33.8 °F 93% 30.16 in 10.0 mi SSE 3.5 mph - N/A   Overcast
9:36 AM 35.6 °F - 35.6 °F 100% 30.17 in 10.0 mi Calm Calm - N/A   Mostly Cloudy
9:56 AM 35.6 °F 30.7 °F 33.8 °F 93% 30.17 in 10.0 mi SE 5.8 mph - N/A   Overcast
10:16 AM 35.6 °F 32.8 °F 35.6 °F 100% 30.18 in 10.0 mi SE 3.5 mph - N/A   Overcast
10:36 AM 37.4 °F 32.8 °F 35.6 °F 93% 30.18 in 10.0 mi ESE 5.8 mph - N/A   Overcast
10:56 AM 37.4 °F 31.4 °F 35.6 °F 93% 30.19 in 10.0 mi SE 8.1 mph - N/A   Mostly Cloudy
11:16 AM 37.4 °F 32.8 °F 35.6 °F 93% 30.20 in 9.0 mi SE 5.8 mph - N/A   Overcast
11:36 AM 37.4 °F 32.1 °F 35.6 °F 93% 30.20 in 10.0 mi SSE 6.9 mph - N/A   Overcast
11:56 AM 37.4 °F 32.8 °F 35.6 °F 93% 30.20 in 10.0 mi SE 5.8 mph - N/A   Overcast
12:16 PM 37.4 °F 33.8 °F 35.6 °F 93% 30.21 in 10.0 mi SE 4.6 mph - N/A   Overcast
12:36 PM 37.4 °F 32.1 °F 37.4 °F 100% 30.21 in 10.0 mi ESE 6.9 mph - N/A   Overcast
12:56 PM 39.2 °F 35.0 °F 35.6 °F 87% 30.21 in 10.0 mi SE 5.8 mph - N/A   Overcast
1:16 PM 37.4 °F 32.1 °F 35.6 °F 93% 30.22 in 9.0 mi SSE 6.9 mph - N/A   Overcast
1:36 PM 39.2 °F 33.6 °F 35.6 °F 87% 30.22 in 9.0 mi South 8.1 mph - N/A   Overcast
1:56 PM 39.2 °F 37.0 °F 35.6 °F 87% 30.23 in 10.0 mi SSE 3.5 mph - N/A   Mostly Cloudy
2:16 PM 39.2 °F 37.0 °F 35.6 °F 87% 30.23 in 10.0 mi South 3.5 mph - N/A   Mostly Cloudy
2:36 PM 41.0 °F 36.4 °F 35.6 °F 81% 30.23 in 10.0 mi SSW 6.9 mph - N/A   Mostly Cloudy
2:56 PM 41.0 °F 38.0 °F 35.6 °F 81% 30.23 in 10.0 mi SE 4.6 mph - N/A   Overcast
3:16 PM 42.8 °F 38.0 °F 35.6 °F 76% 30.23 in 10.0 mi SW 8.1 mph - N/A   Mostly Cloudy
3:36 PM 41.0 °F 34.7 °F 35.6 °F 81% 30.23 in 10.0 mi SSW 10.4 mph - N/A   Mostly Cloudy
3:56 PM 41.0 °F 36.4 °F 35.6 °F 81% 30.23 in 10.0 mi SSW 6.9 mph - N/A   Partly Cloudy
4:16 PM 42.8 °F 38.6 °F 35.6 °F 76% 30.24 in 10.0 mi SW 6.9 mph - N/A   Scattered Clouds
4:36 PM 41.0 °F 37.1 °F 33.8 °F 76% 30.24 in 10.0 mi South 5.8 mph - N/A   Mostly Cloudy
4:56 PM 42.8 °F 38.0 °F 33.8 °F 70% 30.24 in 10.0 mi SSW 8.1 mph - N/A   Mostly Cloudy
5:16 PM 41.0 °F 37.1 °F 33.8 °F 76% 30.24 in 10.0 mi South 5.8 mph - N/A   Scattered Clouds
5:36 PM 41.0 °F 37.1 °F 33.8 °F 76% 30.25 in 10.0 mi SW 5.8 mph - N/A   Mostly Cloudy
5:56 PM 41.0 °F 35.8 °F 33.8 °F 76% 30.25 in 10.0 mi South 8.1 mph - N/A   Overcast
6:16 PM 39.2 °F 35.9 °F 33.8 °F 81% 30.25 in 10.0 mi SSW 4.6 mph - N/A   Overcast
6:36 PM 39.2 °F 37.0 °F 35.6 °F 87% 30.25 in 10.0 mi SSE 3.5 mph - N/A   Overcast
6:56 PM 39.2 °F 37.0 °F 35.6 °F 87% 30.25 in 10.0 mi SSE 3.5 mph - N/A   Overcast
7:16 PM 39.2 °F 37.0 °F 35.6 °F 87% 30.25 in 10.0 mi SSE 3.5 mph - N/A   Overcast
7:36 PM 39.2 °F 37.0 °F 33.8 °F 81% 30.25 in 10.0 mi SW 3.5 mph - N/A   Overcast
7:56 PM 39.2 °F 37.0 °F 32.0 °F 75% 30.25 in 10.0 mi SW 3.5 mph - N/A   Mostly Cloudy
8:16 PM 39.2 °F 37.0 °F 32.0 °F 75% 30.25 in 10.0 mi South 3.5 mph - N/A   Overcast
8:36 PM 37.4 °F - 33.8 °F 87% 30.26 in 10.0 mi Calm Calm - N/A   Mostly Cloudy
8:56 PM 37.4 °F 33.8 °F 35.6 °F 93% 30.26 in 10.0 mi SSW 4.6 mph - N/A   Overcast
9:16 PM 37.4 °F - 35.6 °F 93% 30.26 in 10.0 mi Calm Calm - N/A   Overcast
9:36 PM 37.4 °F - 35.6 °F 93% 30.27 in 10.0 mi Calm Calm - N/A   Overcast
9:56 PM 37.4 °F 34.9 °F 35.6 °F 93% 30.27 in 10.0 mi SSE 3.5 mph - N/A   Overcast
10:16 PM 37.4 °F - 33.8 °F 87% 30.27 in 10.0 mi Calm Calm - N/A   Overcast
10:36 PM 37.4 °F - 35.6 °F 93% 30.27 in 10.0 mi Calm Calm - N/A   Overcast
10:56 PM 35.6 °F - 33.8 °F 93% 30.28 in 10.0 mi Calm Calm - N/A   Overcast
11:16 PM 35.6 °F 32.8 °F 33.8 °F 93% 30.28 in 10.0 mi North 3.5 mph - N/A   Mostly Cloudy
11:36 PM 35.6 °F - 33.8 °F 93% 30.28 in 10.0 mi Calm Calm - N/A   Partly Cloudy
11:56 PM 35.6 °F - 33.8 °F 93% 30.29 in 10.0 mi Calm Calm - N/A   Mostly Cloudy